This is the latest recevied weather packets stored in our database for station/object KG5WBN. If no packets are shown the sender has not sent any weather packets the latest 10 day(s).
| Time | Temp. | Humidity | Pressure | Rain* | Wind** | Luminosity | Snow |
|---|---|---|---|---|---|---|---|
| 1777923931 | 26.67° C | 22% | 1015.6 hPa | 0 mm | - | 382 W/m² | - |
| 1777923627 | 27.22° C | 22% | 1015.9 hPa | 0 mm | - | 384 W/m² | - |
| 1777923324 | 26.67° C | 22% | 1015.6 hPa | 0 mm | - | 383 W/m² | - |
| 1777923023 | 26.67° C | 22% | 1015.9 hPa | 0 mm | - | 384 W/m² | - |
| 1777922720 | 26.67° C | 22% | 1015.9 hPa | 0 mm | - | 381 W/m² | - |
| 1777922418 | 26.67° C | 22% | 1016.3 hPa | 0 mm | - | 385 W/m² | - |
| 1777922116 | 27.78° C | 22% | 1015.6 hPa | 0 mm | - | 386 W/m² | - |
| 1777921812 | 26.67° C | 22% | 1015.9 hPa | 0 mm | - | 384 W/m² | - |
| 1777921508 | 26.67° C | 23% | 1016.3 hPa | 0 mm | - | 384 W/m² | - |
| 1777921204 | 27.22° C | 22% | 1016.3 hPa | 0 mm | - | 384 W/m² | - |
| 1777920901 | 26.67° C | 22% | 1016.3 hPa | 0 mm | - | 385 W/m² | - |
| 1777920597 | 26.67° C | 22% | 1016.3 hPa | 0 mm | - | 380 W/m² | - |
| 1777920293 | 26.67° C | 22% | 1016.3 hPa | 0 mm | - | 382 W/m² | - |
| 1777919989 | 27.22° C | 22% | 1016.3 hPa | 0 mm | - | 381 W/m² | - |
| 1777919686 | 27.22° C | 22% | 1016.3 hPa | 0 mm | - | 378 W/m² | - |
| 1777919384 | 26.67° C | 22% | 1016.6 hPa | 0 mm | - | 369 W/m² | - |
| 1777919080 | 27.22° C | 22% | 1016.3 hPa | 0 mm | - | 378 W/m² | - |
| 1777918778 | 27.22° C | 23% | 1016.6 hPa | 0 mm | - | 377 W/m² | - |
| 1777918475 | 27.22° C | 23% | 1016.6 hPa | 0 mm | - | 377 W/m² | - |
| 1777918174 | 26.67° C | 23% | 1016.3 hPa | 0 mm | - | 356 W/m² | - |
| 1777917872 | 26.11° C | 23% | 1016.6 hPa | 0 mm | - | 380 W/m² | - |
| 1777917570 | 26.67° C | 22% | 1016.3 hPa | 0 mm | - | 375 W/m² | - |
| 1777917267 | 26.67° C | 22% | 1016.3 hPa | 0 mm | - | 371 W/m² | - |
| 1777916964 | 26.67° C | 23% | 1016.9 hPa | 0 mm | - | 371 W/m² | - |
| 1777916662 | 26.67° C | 23% | 1016.6 hPa | 0 mm | - | 367 W/m² | - |
* Rain latest hour (hover to see other rain measurements)
** Current wind speed in m/s (hover to see current wind gust speed)